Weather History for KRWL - March, 2014

Change the Weather History Date:

Saturday, March 15, 2014

  Actual Average Record
Temperature  
Mean Temperature 31 °F 32 °F  
Max Temperature 39 °F 43 °F 67 °F (2015)
Min Temperature 23 °F 21 °F -16 °F (1956)
Degree Days  
Heating Degree Days 34 33  
Month to date heating degree days 456 525  
Since 1 July heating degree days 6220 6482  
Cooling Degree Days 0 0  
Month to date cooling degree days 0 0  
Year to date cooling degree days 0 0  
Moisture  
Dew Point 22 °F    
Average Humidity 65    
Maximum Humidity 85    
Minimum Humidity 44    
Precipitation  
Precipitation 0.01 in 0.02 in 0.19 in (1970)
Month to date precipitation 0.28 0.28  
Year to date precipitation 0.74 1.06  
Sea Level Pressure  
Sea Level Pressure 30.11 in    
Wind  
Wind Speed 16 mph (WNW)    
Max Wind Speed 32 mph    
Max Gust Speed 44 mph    
Visibility 7 miles    
Events Fog , Snow    
T = Trace of Precipitation, MM = Missing Value Source: NWS Daily Summary

Daily Weather History Graph

Daily Weather History Graph

Search for Another Location

Airport or City:

Trip Planner

Search our weather history database for the weather conditions in past years. The results will help you decide how hot, cold, wet, or windy it might be!

Date:

Astronomy

Mar. 15, 2014 Rise Set
Actual Time 7:20 AM MDT 7:15 PM MDT
Civil Twilight 6:52 AM MDT 7:43 PM MDT
Nautical Twilight 6:20 AM MDT 8:15 PM MDT
Astronomical Twilight 5:47 AM MDT 8:48 PM MDT
Moon 6:37 PM MDT (3/15) 6:34 AM MDT (3/15)
Length of Visible Light 12h 50m
Length of Day
11h 54m
Waxing Gibbous, 99% of the Moon is Illuminated
Mar 15
Waxing Gibbous
Mar 16
Full
Mar 23
Last Quarter
Mar 30
New
Apr 7
First Quarter

Hourly Weather History & Observations

Time (MDT) Temp. Windchill Dew Point Humidity Pressure Visibility Wind Dir Wind Speed Gust Speed Precip Events Conditions
12:53 AM 37.9 °F 27.9 °F 21.0 °F 51% 29.86 in 10.0 mi WSW 19.6 mph 27.6 mph N/A   Overcast
1:53 AM 37.0 °F 26.4 °F 24.1 °F 59% 29.86 in 10.0 mi West 20.7 mph 35.7 mph N/A   Overcast
2:25 AM 35.6 °F 24.8 °F 26.6 °F 70% 29.93 in 10.0 mi WSW 19.6 mph 33.4 mph N/A   Overcast
2:36 AM 35.6 °F 24.5 °F 26.6 °F 70% 29.93 in 10.0 mi West 20.7 mph 33.4 mph N/A   Overcast
2:53 AM 35.1 °F 23.0 °F 27.0 °F 72% 29.85 in 10.0 mi West 24.2 mph 32.2 mph N/A   Overcast
3:06 AM 35.6 °F 24.0 °F 26.6 °F 70% 29.94 in 10.0 mi West 23.0 mph 34.5 mph N/A   Overcast
3:53 AM 34.0 °F 21.0 °F 26.1 °F 73% 29.84 in 10.0 mi West 26.5 mph 36.8 mph N/A   Overcast
4:03 AM 33.8 °F 19.9 °F 24.8 °F 70% 29.94 in 10.0 mi West 31.1 mph 38.0 mph N/A   Overcast
4:53 AM 33.1 °F 20.1 °F 24.1 °F 70% 29.86 in 10.0 mi West 25.3 mph 35.7 mph N/A   Scattered Clouds
5:53 AM 32.0 °F 19.8 °F 23.0 °F 69% 29.89 in 10.0 mi West 20.7 mph 32.2 mph N/A   Clear
6:53 AM 30.9 °F 17.2 °F 21.0 °F 67% 29.94 in 10.0 mi West 25.3 mph 34.5 mph N/A   Scattered Clouds
7:30 AM 30.2 °F 17.8 °F 21.2 °F 69% 30.01 in 2.5 mi West 19.6 mph 27.6 mph 0.00 in Snow Light Snow
7:38 AM 28.4 °F 16.2 °F 23.0 °F 80% 30.02 in 1.0 mi WNW 17.3 mph 27.6 mph 0.00 in Snow Light Snow
7:46 AM 28.4 °F 15.4 °F 24.8 °F 86% 30.03 in 0.8 mi WNW 19.6 mph - 0.00 in Snow Light Snow
7:53 AM 28.9 °F 16.5 °F 23.0 °F 78% 30.01 in 1.0 mi WNW 18.4 mph 25.3 mph 0.00 in Snow Light Snow
8:13 AM 28.4 °F 17.0 °F 23.0 °F 80% 30.05 in 2.0 mi WNW 15.0 mph - 0.00 in Snow Light Snow
8:21 AM 28.4 °F 18.0 °F 23.0 °F 80% 30.05 in 8.0 mi WNW 12.7 mph - 0.00 in   Overcast
8:53 AM 28.9 °F 18.6 °F 24.1 °F 82% 30.08 in 3.0 mi NNW 12.7 mph - 0.00 in Snow Light Snow
9:00 AM 28.4 °F 18.5 °F 23.0 °F 80% 30.08 in 9.0 mi NNW 11.5 mph - 0.00 in Snow Light Snow
9:53 AM 28.0 °F 16.5 °F 23.0 °F 81% 30.12 in 1.5 mi North 15.0 mph - 0.00 in Snow Light Snow
9:59 AM 28.4 °F 16.2 °F 24.8 °F 86% 30.13 in 0.8 mi NNW 17.3 mph 21.9 mph 0.00 in Snow Light Snow
10:12 AM 26.6 °F 17.5 °F 24.8 °F 93% 30.13 in 0.5 mi NNW 9.2 mph - 0.00 in Fog , Snow Snow
10:17 AM 28.4 °F 19.1 °F 24.8 °F 86% 30.13 in 1.0 mi NW 10.4 mph - 0.00 in Snow Light Snow
10:26 AM 28.4 °F 15.8 °F 23.0 °F 80% 30.14 in 9.0 mi NW 18.4 mph 21.9 mph 0.00 in   Overcast
10:37 AM 28.4 °F 16.6 °F 23.0 °F 80% 30.14 in 10.0 mi NW 16.1 mph - 0.00 in   Mostly Cloudy
10:53 AM 32.0 °F 20.8 °F 23.0 °F 69% 30.13 in 10.0 mi NNW 17.3 mph - 0.00 in   Partly Cloudy
11:53 AM 36.0 °F 25.6 °F 18.0 °F 48% 30.16 in 10.0 mi NW 18.4 mph 25.3 mph N/A   Partly Cloudy
12:33 PM 30.2 °F 16.8 °F 24.8 °F 80% 30.21 in 0.8 mi NNW 23.0 mph 40.3 mph 0.00 in Snow Light Snow
12:42 PM 28.4 °F 15.1 °F 24.8 °F 86% 30.22 in 1.0 mi North 20.7 mph 28.8 mph 0.00 in Snow Light Snow
12:53 PM 30.0 °F 17.9 °F 24.1 °F 79% 30.23 in 3.0 mi NW 18.4 mph 27.6 mph 0.00 in Snow Light Snow
1:09 PM 35.6 °F 25.5 °F 23.0 °F 60% 30.22 in 10.0 mi NNW 17.3 mph 23.0 mph 0.00 in   Mostly Cloudy
1:53 PM 35.1 °F 23.3 °F 19.0 °F 52% 30.21 in 10.0 mi NNW 23.0 mph 29.9 mph 0.00 in   Mostly Cloudy
2:53 PM 35.1 °F 24.5 °F 19.9 °F 54% 30.24 in 10.0 mi NNW 18.4 mph 26.5 mph 0.00 in   Overcast
3:53 PM 34.0 °F 25.5 °F 23.0 °F 64% 30.27 in 7.0 mi North 11.5 mph - 0.01 in Snow Light Snow
4:53 PM 37.9 °F 28.9 °F 19.9 °F 48% 30.25 in 10.0 mi NNW 16.1 mph 25.3 mph 0.00 in   Scattered Clouds
5:53 PM 37.9 °F 28.2 °F 17.1 °F 43% 30.29 in 10.0 mi NNW 18.4 mph - N/A   Partly Cloudy
6:53 PM 35.1 °F 26.4 °F 16.0 °F 46% 30.32 in 10.0 mi NNW 12.7 mph - N/A   Clear
7:53 PM 28.0 °F 22.8 °F 17.1 °F 63% 30.37 in 10.0 mi NW 4.6 mph - N/A   Clear
8:53 PM 27.0 °F 20.5 °F 17.1 °F 66% 30.38 in 10.0 mi West 5.8 mph - N/A   Clear
9:53 PM 26.1 °F 21.9 °F 18.0 °F 71% 30.40 in 10.0 mi West 3.5 mph - N/A   Clear
10:53 PM 24.1 °F 17.0 °F 17.1 °F 75% 30.40 in 10.0 mi SSW 5.8 mph - N/A   Clear
11:53 PM 28.0 °F 20.0 °F 16.0 °F 61% 30.34 in 10.0 mi WSW 8.1 mph - N/A   Clear